Location: Newark
(46.3506°N, 1.8861°E)
Time: 12:11:11
(UTC+00:00)

ISS - Visible Passes

Search period start: 20 September 2019 00:00
Search period end: 30 September 2019 00:00
Orbit: 411 x 421 km, 51.6° (Epoch: 20 September)

Date Brightness Start Highest point End Pass type
(mag) Time Alt. Az. Time Alt. Az. Time Alt. Az.
20 Sep -3.5 19:22:47 10° SW 19:25:58 45° SE 19:26:21 43° ESE visible
21 Sep -2.7 18:34:41 10° SSW 18:37:36 28° SE 18:40:14 12° E visible
21 Sep -2.3 20:10:54 10° WSW 20:13:09 37° W 20:13:09 37° W visible
22 Sep -3.8 19:22:20 10° WSW 19:25:39 81° NNW 19:26:52 36° ENE visible
22 Sep -0.3 20:59:39 10° WNW 20:59:46 11° WNW 20:59:46 11° WNW visible
23 Sep -3.8 18:33:52 10° SW 18:37:09 68° SSE 18:40:26 10° ENE visible
23 Sep -2.0 20:10:56 10° W 20:13:20 32° NW 20:13:20 32° NW visible
24 Sep -2.9 19:22:14 10° W 19:25:26 45° NNW 19:26:48 28° NE visible
24 Sep -0.2 20:59:37 10° WNW 20:59:42 10° WNW 20:59:42 10° WNW visible
25 Sep -3.3 18:33:33 10° WSW 18:36:50 60° NNW 18:40:09 10° ENE visible
25 Sep -1.7 20:10:57 10° WNW 20:13:04 26° NW 20:13:04 26° NW visible
26 Sep -2.4 19:22:14 10° WNW 19:25:18 33° N 19:26:24 26° NNE visible
27 Sep -2.6 18:33:29 10° W 18:36:38 38° NNW 18:39:40 11° ENE visible
27 Sep -1.5 20:10:47 10° WNW 20:12:34 24° NW 20:12:34 24° NW visible
28 Sep -2.5 19:22:08 10° WNW 19:25:10 31° N 19:25:48 29° NNE visible
29 Sep -2.4 18:33:25 10° WNW 18:36:27 31° N 18:39:02 13° ENE visible
29 Sep -1.4 20:10:25 10° WNW 20:11:55 23° NW 20:11:55 23° NW visible
